CZ-6A DEB

Satellite information

Favourite Embed

Satellite Type and Status

DEBRISIN ORBIT

Key statistics

Satellite CZ-6A DEB at a glance.

Uptime

1128

Days in orbit

Revolutions

≈ 13.9

Per day

Orbit

SSO

Sun Synchronous Orbit

Inclination

99.0

Latest

Satellite identification and parameters

Extended collection of information and parameters for CZ-6A DEB.

Object identification

Identified? True

Debris? True

Object name: CZ-6A DEB

International designator: 2022-151GC

Object number (NORAD): 54452

Object ID (CCSDS): 54452

Country: PEOPLES REPUBLIC OF CHINA (PRC)

Current information (Y/N): Y

RCS size: SMALL

Orbital parameters

Period: 103.673 minutes

Inclination: 98.9614 deg

SMA: 7310.327 km

Apoapsis: 1040.893 km

Periapsis: 823.492 km

RAAN: 316.7252 deg

Eccentricy: 0.0148695

Argument of periapsis: 233.2859 deg

Mean anomaly: 125.4564 deg

Mean motion: 13.88984871 rev/day

Mean motion (dot): 0.00000291 rev/day2

B* drag term: 0.00025234 1/REarth

Two-line elements (TLE)

Creation date: Dec. 12, 2025, 7:26 a.m.

Reference frame: TEME

Reference center: EARTH

Epoch: Dec. 11, 2025, 10:09 p.m. UTC

TLE line 0: 0 CZ-6A DEB

TLE line 1: 1 54452U 22151GC 25345.92348751 .00000291 00000-0 25234-3 0 9990

TLE line 2: 2 54452 98.9614 316.7252 0148695 233.2859 125.4564 13.88984871156051

Live tracking on map

Real-time ground track for satellite CZ-6A DEB.

In-orbit conjunctions

A list of the most updated potential collisions computed for object CZ-6A DEB.

Target Orbit TCA Probability of collision Miss distance Type
FENGYUN 1C DEB SSO 2025-03-19 06:57:19 0.0001344255 82.0 (m) DEBRIS
CZ-2C DEB SSO 2024-11-10 23:18:22 0.0002738269 820.0 (m) DEBRIS

Associated space launch

Chinese satellite reported for atmospheric/ocean/environmental/spatial parameter research purposes, details TBD.

CZ-6A DEB was lifted into orbit during the mission ‘Long March 6A | Yunhai 3’, on board a Long March 6A space rocket.

The launch took place on Nov. 11, 2022, 10:52 p.m. from Launch Complex 9A.

For more information about the launch, click the button.

Launch to space Long March 6A | Yunhai 3
Long March 6A | Yunhai 3

Agency: N/A

Status: Launch Successful

Launch date: Nov. 11, 2022, 10:52 p.m. UTC

Rocket: Long March 6A

Launch pad: Launch Complex 9A

Location: Taiyuan Satellite Launch Center, People's Republic of China

...

Latest news about this satellite

There are no fresh news available about this satellite. Check back as we update our databases every day.


Newsletter sign-up

Weekly statistics, charts and insights to help you stay on top of the space industry.